Regional Weather Roundup
Issued by NWS Newport/Morehead, NC

Current Version | Previous Version | Text Only | Print | Product List | Glossary On
Versions: 1 2 3 4 5 6 7 8 9 10 11 12 13 14 15 16 17 18 19 20 21 22 23 24 25 26 27 28 29 30 31 32 33 34 35 36 37 38 39 40 41 42 43 44 45 46 47 48 49 50
000
ASUS42 KMHX 220410
RWRMHX
WEATHER ROUNDUP FOR EASTERN NORTH CAROLINA
NATIONAL WEATHER SERVICE NEWPORT/MOREHEAD CITY NC
1200 AM EDT MON SEP 22 2014

NOTE: "FAIR" INDICATES FEW OR NO CLOUDS BELOW 12,000 FEET
WITH NO SIGNIFICANT WEATHER AND/OR OBSTRUCTIONS TO VISIBILITY

NCZ015>017-031-032-045>047-102-103-220500-
NORTH COAST

CITY           SKY/WX    TMP DP  RH WIND       PRES   REMARKS
EDENTON        CLEAR     74  66  77 SW9       29.83S
ELIZABETH CITY CLEAR     73  66  78 SW12      29.81R
KITTY HAWK     CLEAR     74  66  74 SW10G18   29.81S
MANTEO         CLEAR     74  66  75 SW14      29.83R

$$

NCZ045>047-081-094-103-104-220500-
CENTRAL COAST

CITY           SKY/WX    TMP DP  RH WIND       PRES   REMARKS
FRISCO         CLEAR     75  70  84 W14G25    29.86S
SWANQUARTER      N/A     75 N/A N/A SW14G20   29.82S

$$

NCZ095-097-098-100-101-220500-
SOUTHERN COAST

CITY           SKY/WX    TMP DP  RH WIND       PRES   REMARKS
BEAUFORT       CLEAR     79  71  76 SW14G21   29.89R
CEDAR ISLAND     N/A     75 N/A N/A SW7G16    29.91S
JACKSONVILLE   CLEAR     75  66  73 SW10      29.89R
NEWPORT        NOT AVBL
PINEY ISLAND   CLEAR     77  68  73 SW12      29.87S
WILMINGTON     CLEAR     75  70  84 SW12      29.91S


$$

NCZ011>013-027>030-043-044-078>080-089-090>093-098-220500-
COASTAL PLAIN

CITY           SKY/WX    TMP DP  RH WIND       PRES   REMARKS
AHOSKIE        PTCLDY    72  65  78 CALM      29.82S
CLINTON        CLEAR     73  67  82 SW3       29.90R
ELIZABETHTOWN  CLEAR     73  65  75 S5        29.91S
GOLDSBORO      MOCLDY    75  70  83 SW5       29.85S
GREENVILLE     CLEAR     73  66  78 SW9       29.88S
HAVELOCK       CLEAR     73  67  81 SW9       29.90R
KENANSVILLE    PTCLDY    72  64  78 CALM      29.90S
KINSTON        CLEAR     73  65  77 SW8       29.88S
NEW BERN       CLEAR     73  64  73 SW6       29.89R
RICHLANDS      CLEAR     72  63  73 SW8       29.90S
ROANOKE RAPIDS NOT AVBL
ROCKY MOUNT    MOCLDY    74  65  73 SW9       29.85S
WASHINGTON     CLEAR     73  65  76 SW6       29.86S
WHITEVILLE     CLEAR     73  65  77 SW6       29.91S

$$

AMZ130-135-150-152-154-156-158-170-250-252-270-ANZ085-086-088-633-658-670-220500-
MARINE OBSERVATIONS

STATION/POSITION TIME  TEMP    WIND        PRES    WAVE   SWELL
                       AIR SEA DIR/SP/G            HT/PER HT/PER
                 (UTC) (F)     (DEG/KT/KT) (MB)    (FT/S) (FT/S)
CHESAPEAKE LIGHT 0300   76     230/ 21/ 23 1008.0
BUOY 44014       0400   76 77  220/ 17/ 21 1008.1    5/ 8   5/ 8
DUCK             0400   76 74  220/ 16/ 19 1008.8
2E DUCK          0400                        N/A     3/ 9   2/11
OREGON INLET     0400   76 76  220/ 16/ 19 1009.9
BUOY 44095       0400      74                N/A     5/ 9   2/11
20E OREGON INLET NOT AVBL
HATTERAS CG      NOT AVBL
DIAMOND BUOY     0400   80     230/ 23/ 27 1011.0    6/ 9   3/ 9
CAPE LOOKOUT     0300   79     240/ 12/ 16 1011.9
BEAUFORT LAB     0400   79 75  240/  6/ 12 1011.4
30 SE NEW RIVER  0400   82 82  240/ 19/ 25 1011.9    5/ 5   2/ 8
5 SE WRIGHTSVILL 0300   76 79  230/ 17/ 21   N/A
BUOY 41002       0345   80 81  250/ 14/ 17 1015.8    8/ 8   7/ 8
BUOY 41004       0400   81 81  230/ 16/ 19 1014.1    4/ 4   2/ 9

$$


USA.gov is the U.S. government's official web portal to all federal, state and local government web resources and services.